ONEWEB-0213 (48790 NORAD) Tracking and Keplerian Element Data

This shows tracking and keplerian element data for the satellite.

Feedback or suggestion? Click here.




ElementValue
Catalog48790
NameONEWEB-0213
Epoch Orbit185
Epoch Day170.58334491
Epoch Year2021
RAAN268.8411
Inclination87.4065
Eccentricity0.0011445
Argument of Perigee166.7171
Mean Anonmoly124.2279
Mean Motion15.38692166
Decay Rate-0.00898104
L11 48790U 21045Z 21170.58334491 -.00898104 00000-0 -25520-1 0 9995
L22 48790 87.4065 268.8411 0011445 166.7171 124.2279 15.38692166 1852

Live tracking and technical data element details for ONEWEB-0213 (NORAD 48790). ONEWEB-0213 can be tracked NOW for your location showing map with azimuth and elevation plus other details from your city location.

Track the satellite on the map from your city or location and see movement details for azimuth, elevation, latitude, longitude, range, height, and movement on the map or in text.







IsCatalogInMostPopularTable: catalog: 48790, numindb: 8
Update: records affected: 1



GetName: 48790 ONEWEB-0213

Hit Count: updated at: Mon, 21 Jun 2021 04:40:09 GMT